Previsão horária em Barniewice

Hoje, 5 Agosto, Quinta-feira

Tempo Temperatura Precipitação Vento Pressão Humidade
00:00 +14°C° 0 mm 1 m/s 749 mmHg 83%
01:00 +14°C° 0 mm 1 m/s 749 mmHg 84%
02:00 +13°C° 0 mm 1 m/s 748 mmHg 85%
03:00 +13°C° 0 mm 1 m/s 748 mmHg 86%
04:00 +13°C° 0 mm 1 m/s 748 mmHg 87%
05:00 +15°C° 0 mm 2 m/s 748 mmHg 81%
06:00 +16°C° 0 mm 2 m/s 748 mmHg 74%
07:00 +18°C° 0 mm 3 m/s 748 mmHg 68%
08:00 +19°C° 0 mm 3 m/s 748 mmHg 63%
09:00 +20°C° 0 mm 3 m/s 748 mmHg 57%
10:00 +21°C° 0 mm 4 m/s 748 mmHg 51%
11:00 +22°C° 0 mm 4 m/s 748 mmHg 50%
12:00 +22°C° 0 mm 4 m/s 747 mmHg 49%
13:00 +22°C° 0 mm 5 m/s 747 mmHg 48%
14:00 +22°C° 0 mm 5 m/s 747 mmHg 50%
15:00 +22°C° 0 mm 5 m/s 747 mmHg 52%
16:00 +21°C° 0 mm 5 m/s 746 mmHg 54%
17:00 +20°C° 0 mm 5 m/s 746 mmHg 59%
18:00 +20°C° 0 mm 5 m/s 746 mmHg 65%
19:00 +19°C° 0 mm 6 m/s 746 mmHg 70%
20:00 +17°C° 0.1 mm 5 m/s 746 mmHg 71%
21:00 +18°C° 0.1 mm 4 m/s 745 mmHg 73%
22:00 +17°C° 0.1 mm 4 m/s 745 mmHg 75%
23:00 +17°C° 0.2 mm 4 m/s 745 mmHg 78%

Amanhã, 6 Agosto, Sexta-feira

Tempo Temperatura Precipitação Vento Pressão Humidade
00:00 +16°C° 0.2 mm 3 m/s 745 mmHg 81%
01:00 +16°C° 0.2 mm 3 m/s 745 mmHg 84%
02:00 +15°C° 0 mm 4 m/s 745 mmHg 83%
03:00 +15°C° 0 mm 4 m/s 744 mmHg 83%
04:00 +15°C° 0 mm 5 m/s 744 mmHg 82%
05:00 +15°C° 0 mm 5 m/s 744 mmHg 76%
06:00 +16°C° 0 mm 5 m/s 744 mmHg 70%
07:00 +16°C° 0 mm 6 m/s 744 mmHg 64%
08:00 +17°C° 0 mm 6 m/s 744 mmHg 60%
09:00 +17°C° 0 mm 7 m/s 744 mmHg 57%
10:00 +18°C° 0 mm 7 m/s 744 mmHg 53%
11:00 +18°C° 0 mm 7 m/s 744 mmHg 53%
12:00 +18°C° 0 mm 7 m/s 744 mmHg 53%
13:00 +20°C° 0 mm 6 m/s 744 mmHg 52%
14:00 +19°C° 0 mm 6 m/s 744 mmHg 52%
15:00 +19°C° 0 mm 5 m/s 744 mmHg 52%
16:00 +19°C° 0 mm 5 m/s 744 mmHg 52%
17:00 +18°C° 0 mm 4 m/s 744 mmHg 56%
18:00 +18°C° 0 mm 4 m/s 744 mmHg 61%
19:00 +17°C° 0 mm 3 m/s 744 mmHg 65%
20:00 +16°C° 0 mm 3 m/s 744 mmHg 70%
21:00 +14°C° 0 mm 3 m/s 744 mmHg 74%
22:00 +13°C° 0 mm 3 m/s 744 mmHg 79%
23:00 +13°C° 0 mm 3 m/s 743 mmHg 80%

Depois de amanhã, 7 Agosto, Sábado

Tempo Temperatura Precipitação Vento Pressão Humidade
00:00 +13°C° 0 mm 3 m/s 743 mmHg 82%
01:00 +13°C° 0 mm 3 m/s 743 mmHg 84%
02:00 +12°C° 0 mm 3 m/s 743 mmHg 85%
03:00 +13°C° 0 mm 2 m/s 743 mmHg 87%
04:00 +13°C° 0 mm 2 m/s 743 mmHg 88%
05:00 +15°C° 0 mm 2 m/s 743 mmHg 81%
06:00 +16°C° 0 mm 2 m/s 743 mmHg 74%
07:00 +18°C° 0 mm 2 m/s 743 mmHg 66%
08:00 +20°C° 0 mm 2 m/s 743 mmHg 58%
09:00 +21°C° 0 mm 3 m/s 743 mmHg 49%
10:00 +24°C° 0 mm 3 m/s 744 mmHg 40%
11:00 +24°C° 0 mm 3 m/s 743 mmHg 39%
12:00 +25°C° 0 mm 3 m/s 743 mmHg 38%
13:00 +26°C° 0 mm 3 m/s 743 mmHg 37%
14:00 +25°C° 0 mm 3 m/s 744 mmHg 44%
15:00 +24°C° 0 mm 3 m/s 744 mmHg 50%
16:00 +21°C° 0 mm 3 m/s 744 mmHg 56%
17:00 +21°C° 0 mm 3 m/s 744 mmHg 60%
18:00 +20°C° 0 mm 2 m/s 744 mmHg 64%
19:00 +19°C° 0 mm 2 m/s 744 mmHg 68%
20:00 +18°C° 0 mm 2 m/s 744 mmHg 71%
21:00 +17°C° 0 mm 2 m/s 744 mmHg 74%
22:00 +17°C° 0 mm 2 m/s 744 mmHg 77%
23:00 +17°C° 0 mm 2 m/s 744 mmHg 77%

8 Agosto, Domingo

Tempo Temperatura Precipitação Vento Pressão Humidade
00:00 +16°C° 0 mm 2 m/s 744 mmHg 78%
01:00 +16°C° 0 mm 2 m/s 744 mmHg 79%
02:00 +16°C° 0 mm 3 m/s 744 mmHg 78%
03:00 +17°C° 0 mm 3 m/s 744 mmHg 77%
04:00 +17°C° 0 mm 3 m/s 743 mmHg 76%
05:00 +18°C° 0 mm 3 m/s 743 mmHg 74%
06:00 +18°C° 0 mm 3 m/s 743 mmHg 71%
07:00 +19°C° 0 mm 3 m/s 743 mmHg 69%
08:00 +19°C° 0.2 mm 3 m/s 743 mmHg 71%
09:00 +20°C° 0.2 mm 4 m/s 743 mmHg 74%
10:00 +20°C° 0.2 mm 4 m/s 744 mmHg 76%
11:00 +21°C° 0.2 mm 4 m/s 744 mmHg 71%
12:00 +22°C° 0.2 mm 5 m/s 744 mmHg 65%
13:00 +23°C° 0.2 mm 5 m/s 745 mmHg 60%
14:00 +23°C° 0 mm 4 m/s 745 mmHg 59%
15:00 +23°C° 0 mm 4 m/s 746 mmHg 57%
16:00 +24°C° 0 mm 3 m/s 746 mmHg 56%
17:00 +23°C° 0.1 mm 2 m/s 746 mmHg 60%
18:00 +21°C° 0.1 mm 2 m/s 747 mmHg 63%
19:00 +20°C° 0.1 mm 2 m/s 747 mmHg 67%
20:00 +19°C° 0 mm 2 m/s 747 mmHg 69%
21:00 +18°C° 0 mm 2 m/s 748 mmHg 70%
22:00 +17°C° 0 mm 2 m/s 748 mmHg 72%
23:00 +17°C° 0 mm 3 m/s 748 mmHg 71%

9 Agosto, Segunda-feira

Tempo Temperatura Precipitação Vento Pressão Humidade
00:00 +17°C° 0 mm 3 m/s 748 mmHg 71%
01:00 +17°C° 0 mm 3 m/s 748 mmHg 71%
02:00 +16°C° 0 mm 3 m/s 748 mmHg 76%
03:00 +15°C° 0 mm 4 m/s 748 mmHg 80%
04:00 +14°C° 0 mm 4 m/s 748 mmHg 85%
05:00 +15°C° 0 mm 4 m/s 749 mmHg 80%
06:00 +16°C° 0 mm 5 m/s 749 mmHg 74%
07:00 +17°C° 0 mm 5 m/s 749 mmHg 69%
08:00 +19°C° 0 mm 5 m/s 749 mmHg 62%
09:00 +21°C° 0 mm 5 m/s 750 mmHg 56%
10:00 +22°C° 0 mm 5 m/s 750 mmHg 49%
11:00 +22°C° 0.1 mm 6 m/s 750 mmHg 49%
12:00 +22°C° 0.1 mm 6 m/s 750 mmHg 49%
13:00 +22°C° 0.1 mm 6 m/s 750 mmHg 48%
14:00 +23°C° 0 mm 6 m/s 750 mmHg 46%
15:00 +23°C° 0 mm 5 m/s 750 mmHg 43%
16:00 +23°C° 0 mm 5 m/s 750 mmHg 40%
17:00 +22°C° 0 mm 4 m/s 750 mmHg 46%
18:00 +21°C° 0 mm 3 m/s 751 mmHg 52%
19:00 +19°C° 0 mm 2 m/s 751 mmHg 58%
20:00 +18°C° 0.1 mm 2 m/s 751 mmHg 64%
21:00 +17°C° 0.1 mm 3 m/s 751 mmHg 70%
22:00 +16°C° 0.1 mm 3 m/s 751 mmHg 76%
23:00 +16°C° 0 mm 3 m/s 751 mmHg 75%

10 Agosto, Terça-feira

Tempo Temperatura Precipitação Vento Pressão Humidade
00:00 +15°C° 0 mm 4 m/s 751 mmHg 73%
01:00 +17°C° 0 mm 4 m/s 751 mmHg 72%
02:00 +15°C° 0 mm 4 m/s 750 mmHg 75%
03:00 +14°C° 0 mm 4 m/s 750 mmHg 78%
04:00 +14°C° 0 mm 4 m/s 750 mmHg 82%
05:00 +15°C° 0 mm 4 m/s 750 mmHg 79%
06:00 +16°C° 0 mm 5 m/s 750 mmHg 77%
07:00 +17°C° 0 mm 5 m/s 750 mmHg 75%
08:00 +19°C° 0 mm 5 m/s 750 mmHg 65%
09:00 +21°C° 0 mm 5 m/s 750 mmHg 56%
10:00 +22°C° 0 mm 6 m/s 750 mmHg 46%
11:00 +23°C° 0.1 mm 5 m/s 750 mmHg 43%
12:00 +25°C° 0.1 mm 5 m/s 749 mmHg 39%
13:00 +25°C° 0.1 mm 5 m/s 749 mmHg 35%
14:00 +25°C° 0 mm 5 m/s 749 mmHg 40%
15:00 +23°C° 0 mm 5 m/s 749 mmHg 45%
16:00 +22°C° 0 mm 5 m/s 749 mmHg 49%
17:00 +21°C° 0.2 mm 5 m/s 749 mmHg 55%
18:00 +20°C° 0.2 mm 4 m/s 749 mmHg 60%
19:00 +18°C° 0.2 mm 4 m/s 749 mmHg 66%
20:00 +17°C° 0 mm 4 m/s 749 mmHg 72%
21:00 +15°C° 0 mm 4 m/s 749 mmHg 78%
22:00 +14°C° 0 mm 4 m/s 749 mmHg 84%
23:00 +14°C° 0 mm 4 m/s 749 mmHg 86%
Mostrar mais